Location: Härggis
(46.9540°N, 8.4897°E)
Time: 21:53:12
(UTC+00:00)

SL-16 R/B - Pass Details

Date: 02 October 2022
Orbit: 985 x 1007 km, 99.6° (Epoch: 05 December)

Event Time Altitude Azimuth Distance (km) Brightness Sun altitude
Exits shadow 00:16:51 22° 19° (NNE) 2,019 4.5 -44.6°
Drops below altitude 10° 00:19:28 10° 1° (N) 2,776 5.4 -44.4°
Sets 00:22:13 0° 352° (N) 3,733 6.1 -44.2°
